When you browse on this site, cookies collect data to enhance your experience and personalize the content and advertising you see.
Visit our Privacy Policy to learn more. By continuing to use the site, you agree to this use of cookies and data.
  • In Switzerland
  • List of Countries
  • For 7 days
  • Water Temperature
  • Satellite Maps
  • Weather Map
  • Weather Widgets
  • user-avatar
    Login

    Hourly Weather Lehrte

    Today, 21 July, Sunday

    Time Temperature Precipitation Wind Pressure Humidity
    00:00 +18°C° 0.2 mm 2 mps 754 mmHg 92%
    01:00 +18°C° 0 mm 2 mps 755 mmHg 93%
    02:00 +17°C° 0 mm 3 mps 755 mmHg 93%
    03:00 +17°C° 0 mm 3 mps 755 mmHg 93%
    04:00 +17°C° 0 mm 3 mps 755 mmHg 93%
    05:00 +17°C° 0 mm 4 mps 755 mmHg 90%
    06:00 +18°C° 0 mm 4 mps 756 mmHg 88%
    07:00 +19°C° 0 mm 5 mps 756 mmHg 86%
    08:00 +20°C° 0 mm 5 mps 757 mmHg 80%
    09:00 +21°C° 0 mm 5 mps 757 mmHg 74%
    10:00 +22°C° 0 mm 6 mps 758 mmHg 67%
    11:00 +23°C° 0 mm 6 mps 758 mmHg 63%
    12:00 +24°C° 0 mm 6 mps 758 mmHg 58%
    13:00 +26°C° 0 mm 6 mps 758 mmHg 54%
    14:00 +26°C° 0 mm 6 mps 759 mmHg 54%
    15:00 +26°C° 0 mm 5 mps 759 mmHg 53%
    16:00 +26°C° 0 mm 5 mps 760 mmHg 53%
    17:00 +25°C° 0 mm 4 mps 760 mmHg 58%
    18:00 +24°C° 0 mm 3 mps 760 mmHg 62%
    19:00 +21°C° 0 mm 3 mps 760 mmHg 67%
    20:00 +20°C° 0 mm 2 mps 760 mmHg 72%
    21:00 +18°C° 0 mm 2 mps 761 mmHg 76%
    22:00 +18°C° 0 mm 1 mps 761 mmHg 81%
    23:00 +16°C° 0 mm 1 mps 761 mmHg 82%

    Tomorrow, 22 July, Monday

    Time Temperature Precipitation Wind Pressure Humidity
    00:00 +16°C° 0 mm 1 mps 762 mmHg 83%
    01:00 +15°C° 0 mm 0 mps 762 mmHg 85%
    02:00 +15°C° 0 mm 1 mps 762 mmHg 85%
    03:00 +15°C° 0 mm 1 mps 761 mmHg 85%
    04:00 +15°C° 0 mm 1 mps 761 mmHg 86%
    05:00 +16°C° 0 mm 2 mps 761 mmHg 83%
    06:00 +17°C° 0 mm 2 mps 761 mmHg 80%
    07:00 +19°C° 0 mm 2 mps 761 mmHg 78%
    08:00 +20°C° 0 mm 3 mps 762 mmHg 74%
    09:00 +21°C° 0 mm 3 mps 762 mmHg 70%
    10:00 +22°C° 0 mm 3 mps 762 mmHg 67%
    11:00 +22°C° 0 mm 3 mps 762 mmHg 66%
    12:00 +22°C° 0 mm 3 mps 762 mmHg 66%
    13:00 +23°C° 0 mm 2 mps 762 mmHg 65%
    14:00 +25°C° 0 mm 3 mps 762 mmHg 61%
    15:00 +26°C° 0 mm 3 mps 761 mmHg 56%
    16:00 +27°C° 0 mm 4 mps 761 mmHg 52%
    17:00 +26°C° 0 mm 3 mps 761 mmHg 56%
    18:00 +25°C° 0 mm 3 mps 761 mmHg 61%
    19:00 +24°C° 0 mm 2 mps 761 mmHg 65%
    20:00 +23°C° 0 mm 2 mps 761 mmHg 69%
    21:00 +22°C° 0 mm 1 mps 762 mmHg 72%
    22:00 +20°C° 0 mm 1 mps 762 mmHg 75%
    23:00 +20°C° 0 mm 1 mps 762 mmHg 77%

    Day after tomorrow, 23 July, Tuesday

    Time Temperature Precipitation Wind Pressure Humidity
    00:00 +20°C° 0 mm 1 mps 762 mmHg 79%
    01:00 +19°C° 0 mm 1 mps 762 mmHg 81%
    02:00 +19°C° 0 mm 1 mps 762 mmHg 83%
    03:00 +18°C° 0 mm 1 mps 762 mmHg 84%
    04:00 +18°C° 0 mm 1 mps 762 mmHg 86%
    05:00 +19°C° 0 mm 1 mps 762 mmHg 82%
    06:00 +20°C° 0 mm 1 mps 761 mmHg 79%
    07:00 +22°C° 0 mm 1 mps 761 mmHg 75%
    08:00 +23°C° 0 mm 1 mps 761 mmHg 69%
    09:00 +25°C° 0 mm 1 mps 761 mmHg 64%
    10:00 +27°C° 0 mm 1 mps 762 mmHg 59%
    11:00 +28°C° 0 mm 1 mps 761 mmHg 55%
    12:00 +29°C° 0 mm 1 mps 761 mmHg 52%
    13:00 +30°C° 0 mm 1 mps 761 mmHg 48%
    14:00 +31°C° 0 mm 1 mps 760 mmHg 47%
    15:00 +31°C° 0 mm 1 mps 760 mmHg 45%
    16:00 +31°C° 0 mm 1 mps 760 mmHg 44%
    17:00 +30°C° 0 mm 1 mps 760 mmHg 49%
    18:00 +29°C° 0 mm 1 mps 759 mmHg 55%
    19:00 +28°C° 0 mm 1 mps 759 mmHg 60%
    20:00 +26°C° 0 mm 1 mps 759 mmHg 64%
    21:00 +25°C° 0 mm 1 mps 760 mmHg 68%
    22:00 +23°C° 0 mm 1 mps 760 mmHg 73%
    23:00 +22°C° 0 mm 1 mps 760 mmHg 75%

    24 July, Wednesday

    Time Temperature Precipitation Wind Pressure Humidity
    00:00 +22°C° 0 mm 1 mps 759 mmHg 77%
    01:00 +20°C° 0 mm 2 mps 759 mmHg 78%
    02:00 +20°C° 0 mm 2 mps 759 mmHg 79%
    03:00 +20°C° 0 mm 2 mps 759 mmHg 80%
    04:00 +19°C° 0 mm 2 mps 759 mmHg 81%
    05:00 +21°C° 0 mm 2 mps 759 mmHg 78%
    06:00 +23°C° 0 mm 2 mps 758 mmHg 74%
    07:00 +24°C° 0 mm 2 mps 758 mmHg 71%
    08:00 +26°C° 0 mm 3 mps 758 mmHg 66%
    09:00 +27°C° 0 mm 3 mps 758 mmHg 62%
    10:00 +29°C° 0 mm 3 mps 758 mmHg 57%
    11:00 +30°C° 0 mm 3 mps 758 mmHg 54%
    12:00 +33°C° 0 mm 3 mps 758 mmHg 51%
    13:00 +34°C° 0 mm 3 mps 757 mmHg 47%
    14:00 +34°C° 0 mm 3 mps 757 mmHg 48%
    15:00 +34°C° 0 mm 3 mps 757 mmHg 49%
    16:00 +34°C° 0 mm 4 mps 757 mmHg 50%
    17:00 +31°C° 0 mm 3 mps 757 mmHg 54%
    18:00 +30°C° 0 mm 3 mps 756 mmHg 59%
    19:00 +29°C° 0 mm 3 mps 756 mmHg 63%
    20:00 +28°C° 0 mm 3 mps 757 mmHg 64%
    21:00 +26°C° 0 mm 3 mps 757 mmHg 64%
    22:00 +25°C° 0 mm 3 mps 757 mmHg 65%
    23:00 +25°C° 0 mm 3 mps 757 mmHg 65%

    25 July, Thursday

    Time Temperature Precipitation Wind Pressure Humidity
    00:00 +24°C° 0 mm 2 mps 757 mmHg 64%
    01:00 +23°C° 0 mm 2 mps 757 mmHg 63%
    02:00 +23°C° 0 mm 2 mps 757 mmHg 64%
    03:00 +23°C° 0 mm 2 mps 756 mmHg 65%
    04:00 +21°C° 0 mm 2 mps 756 mmHg 66%
    05:00 +23°C° 0 mm 2 mps 756 mmHg 66%
    06:00 +24°C° 0 mm 2 mps 756 mmHg 66%
    07:00 +25°C° 0 mm 2 mps 756 mmHg 66%
    08:00 +27°C° 0 mm 3 mps 756 mmHg 62%
    09:00 +29°C° 0 mm 3 mps 756 mmHg 58%
    10:00 +31°C° 0 mm 3 mps 756 mmHg 54%
    11:00 +33°C° 0 mm 4 mps 756 mmHg 50%
    12:00 +34°C° 0 mm 4 mps 755 mmHg 47%
    13:00 +35°C° 0 mm 5 mps 755 mmHg 43%
    14:00 +35°C° 0 mm 5 mps 755 mmHg 43%
    15:00 +35°C° 0 mm 5 mps 754 mmHg 43%
    16:00 +35°C° 0 mm 5 mps 754 mmHg 43%
    17:00 +34°C° 0 mm 5 mps 754 mmHg 48%
    18:00 +33°C° 0 mm 5 mps 753 mmHg 52%
    19:00 +32°C° 0 mm 4 mps 753 mmHg 57%
    20:00 +29°C° 0 mm 4 mps 753 mmHg 58%
    21:00 +28°C° 0 mm 4 mps 753 mmHg 58%
    22:00 +27°C° 0 mm 4 mps 753 mmHg 58%
    23:00 +27°C° 0 mm 4 mps 753 mmHg 59%

    26 July, Friday

    Time Temperature Precipitation Wind Pressure Humidity
    00:00 +26°C° 0 mm 4 mps 753 mmHg 60%
    01:00 +26°C° 0 mm 4 mps 753 mmHg 61%
    02:00 +25°C° 0 mm 4 mps 752 mmHg 63%
    03:00 +25°C° 0 mm 4 mps 752 mmHg 65%
    04:00 +25°C° 0 mm 3 mps 751 mmHg 67%
    05:00 +25°C° 0 mm 3 mps 752 mmHg 67%
    06:00 +26°C° 0 mm 3 mps 752 mmHg 68%
    07:00 +26°C° 0 mm 3 mps 752 mmHg 68%
    08:00 +27°C° 0.1 mm 4 mps 752 mmHg 68%
    09:00 +28°C° 0.1 mm 5 mps 753 mmHg 68%
    10:00 +28°C° 0.1 mm 6 mps 753 mmHg 67%
    11:00 +28°C° 0.7 mm 6 mps 753 mmHg 68%
    12:00 +28°C° 0.7 mm 6 mps 753 mmHg 69%
    13:00 +28°C° 0.7 mm 5 mps 753 mmHg 70%
    14:00 +28°C° 0.2 mm 5 mps 753 mmHg 68%
    15:00 +28°C° 0.2 mm 4 mps 754 mmHg 66%
    16:00 +27°C° 0.2 mm 3 mps 754 mmHg 64%
    17:00 +26°C° 0.4 mm 3 mps 754 mmHg 72%
    18:00 +24°C° 0.4 mm 3 mps 754 mmHg 79%
    19:00 +22°C° 0.4 mm 3 mps 754 mmHg 86%
    20:00 +21°C° 0 mm 3 mps 754 mmHg 86%
    21:00 +20°C° 0 mm 3 mps 755 mmHg 86%
    22:00 +20°C° 0 mm 3 mps 755 mmHg 86%
    23:00 +19°C° 0 mm 3 mps 755 mmHg 86%
    Show more